Location: Taio
(46.3224°N, 11.0658°E)
Time: 07:12:00
(UTC+02:00)

ISS - Visible Passes

Search period start: 30 April 2017 00:00
Search period end: 10 May 2017 00:00
Orbit: 401 x 409 km, 51.6° (Epoch: 30 April)

Date Brightness Start Highest point End Pass type
(mag) Time Alt. Az. Time Alt. Az. Time Alt. Az.
06 May -1.2 04:45:15 10° SSE 04:46:51 13° SE 04:48:27 10° ESE visible
08 May -2.3 04:36:34 14° SSW 04:38:43 27° SE 04:41:32 10° E visible
09 May -1.7 03:46:22 16° SE 03:46:43 16° SE 03:48:49 10° E visible
